User: anonymous   Login
Location: *
(90.0000°N, 180.0000°W)
Time: 18:46:22
(UTC+02:00)
Language:

Cosmos 1825 - Orbit

View from above orbital plane
View from above orbital plane
View from above satellite
View from above satellite

Ground track
Ground track

The orbit data is extracted from the following two-line orbital elements,

1 17566U 87024A   14298.13902181  .00007543  00000-0  42220-3 0  1315
2 17566 082.5058 165.2723 0004237 352.6871 007.4297 15.13297446507394
Epoch (UTC): 25 October 2014 03:20:11
Eccentricity: 0.0004237
inclination: 82.5058°
perigee height: 523 km
apogee height: 529 km
right ascension of ascending node: 165.2723°
argument of perigee: 352.6871°
revolutions per day: 15.13297446
mean anomaly at epoch: 7.4297°
orbit number at epoch: 50739

The dashed part of the orbit path shows where the satellite is in the earth's shadow,  

DLR